Location: Caltech
(34.1382°N, 118.1253°W)
Time: 08:53:03
(UTC-07:00)

Iridium 14 - Visible Passes

Search period start: 20 April 2014 00:00
Search period end: 30 April 2014 00:00
Orbit: 708 x 711 km, 86.5° (Epoch: 20 April)

Date Brightness Start Highest point End Pass type
(mag) Time Alt. Az. Time Alt. Az. Time Alt. Az.
20 Apr 6.5 21:10:54 10° NNE 21:14:58 36° ENE 21:14:58 36° ENE visible
20 Apr 8.2 22:51:09 10° NW 22:54:02 17° WNW 22:54:02 17° WNW visible
21 Apr 7.8 20:20:03 10° ENE 20:21:26 11° ENE 20:21:56 11° E visible
21 Apr 6.3 21:56:18 10° N 22:01:00 58° W 22:01:00 58° W visible
22 Apr 6.2 21:02:55 10° NNE 21:07:29 40° E 21:07:58 39° E visible
22 Apr 8.2 22:43:25 10° NW 22:46:21 16° W 22:47:03 16° W visible
23 Apr 7.7 20:11:38 10° NE 20:13:32 12° ENE 20:14:58 11° E visible
23 Apr 6.4 21:48:24 10° NNW 21:53:07 53° W 21:54:03 46° SW visible
24 Apr 6.2 20:54:55 10° NNE 20:59:33 43° E 21:01:04 33° SE visible
24 Apr 8.4 22:35:42 10° NW 22:38:22 15° W 22:40:08 13° WSW visible
25 Apr 7.6 20:03:20 10° NE 20:05:38 13° ENE 20:07:56 10° ESE visible
25 Apr 6.6 21:40:29 10° NNW 21:45:10 49° W 21:47:11 30° SW visible
26 Apr 6.1 20:46:56 10° N 20:51:37 47° E 20:54:16 24° SSE visible
26 Apr 8.5 22:28:01 10° NW 22:30:23 14° W 22:32:45 10° WSW visible
27 Apr 6.8 21:32:35 10° NNW 21:37:12 45° W 21:40:27 18° SSW visible
28 Apr 6.0 20:38:56 10° N 20:43:40 52° E 20:47:35 15° SSE visible
28 Apr 8.6 22:20:23 10° NW 22:22:24 13° W 22:24:24 10° WSW visible
29 Apr 7.0 21:24:40 10° NNW 21:29:13 41° W 21:33:45 10° SSW visible
